User: anonymous   Login
Location: Asheville, NC
(35.6000°N, 82.5500°W)
Time: 09:59:02
(UTC-04:00)
Language:

XW-2C - Orbit

View from above orbital plane
View from above orbital plane
View from above satellite
View from above satellite

Ground track
Ground track

The orbit data is extracted from the following two-line orbital elements,

1 40906U 15049H   18112.18292447  .00000888  00000-0  50857-4 0  9991
2 40906  97.4606 116.7034 0013936 219.1888 140.8336 15.15117997143014
Epoch (UTC): 22 April 2018 04:23:24
Eccentricity: 0.0013936
inclination: 97.4606°
perigee height: 511 km
apogee height: 530 km
right ascension of ascending node: 116.7034°
argument of perigee: 219.1888°
revolutions per day: 15.15117997
mean anomaly at epoch: 140.8336°
orbit number at epoch: 14301

The dashed part of the orbit path shows where the satellite is in the earth's shadow,  

DLR